FENGYUN 1C DEB, 39540

Orbit data source: Space-Track

FENGYUN 1C DEB, 39540 is space debris in LEO originally from a launch on Mon, 10 May 1999 UTC launched from the Taiyaun Space Center, China (TSC). Fengyun 1C debris stems from the Chinese weather satellite Fengyun-1C, which was intentionally destroyed by a Chinese anti-satellite missile in 2007. This event dramatically increased the amount of space debris, with thousands of trackable fragments posing hazards to satellites and human spaceflight. The Fengyun 1C debris cloud has become a focal point in discussions about space sustainability and the need for international regulations to prevent the creation of new debris.

Loading next visibility...
Identifier
39540, 1999-025EWH
Orbit
LEO
Country
Flag of CNCN / PRC
Related business
Manufacturer
Unknown
Mission
Spacecraft
Bus & Motor
Unknown
Mass
Unknown
Launch date (UTC)
1999-05-10 (27 years ago)
Launch vehicle
Unknown
Launch site
Taiyaun Space Center, China (TSC)
Object type
Payload
Rocket body
Debris
Shape & HBR
Unknown shape, 0.1 m
Radar Cross Section
Small (<0.1 m²)

Expand to show TLE details & history
Last TLE update: 2 weeks ago

TLE from 2 weeks ago
0 FENGYUN 1C DEB
1 39540U 99025EWH 26186.84708398  .00001776  00000-0  22438-2 0  9998
2 39540 106.1911 179.3595 0398669 307.1839 170.7406 13.37735419718401
Epoch: 2026-07-05T20:19Z
TLE epoch observation values (Epoch: 2026-07-05T20:19:48.055Z)
Latitude
57.55234°
Longitude
157.59883°
Altitude
1,422.288 km
Speed
7.013 km/s
True Right ascension
01h 45m 33s
True Declination
57° 24' 35"
Sunlit
Object was in daylight at epoch
Visualization orbit readout
Latitude
Unknown
Longitude
Unknown
Altitude
Unknown
Speed
Unknown
Apparent Right ascension
Unknown
Apparent Declination
Unknown
Sunlit
N/A
Visualization observer readout
Local Sidereal Time
05:17:32
Azimuth
Unknown
Elevation
Unknown
Doppler factor
Unknown
Orbital elements
Apogee altitude
1,414.221 km
Perigee altitude
816.727 km
Semi-major axis
7,493.611 km
Eccentricity
0.03987
Inclination
106.1911°
RAAN
179.3595°
Arg. of periapsis
307.1839°
True anomaly
171.44114°
Mean anomaly
170.7406°
Eccentric anomaly
171.09422°
Mean motion
3.34585 °/min
Orbital period
107.6 mins
BSTAR
0.0022438
Loading maneuver chart data...
Computing Atmospheric mass density...

Documentation

Showing up to 5 results
|